Location: Baller�as
(41.9020°N, 0.1554°W)
Time: 01:26:23
(UTC+00:00)

Cosmos 1238 Rocket - Pass Details

Date: 10 August 2020
Orbit: 375 x 1027 km, 82.9° (Epoch: 22 September)

Event Time Altitude Azimuth Distance (km) Brightness Sun altitude
Exits shadow 21:54:27 24° 304° (NW) 854 4.4 -25.3°
Drops below altitude 10° 21:56:21 10° 342° (NNW) 1,396 5.8 -25.5°
Sets 21:58:31 0° 356° (N) 2,257 6.9 -25.8°
